Location: Berg
(47.2344°N, 9.5296°E)
Time: 22:58:07
(UTC+00:00)

USA 229 DEB - Pass Details

Date: 24 January 2021
Orbit: 965 x 1247 km, 63.4° (Epoch: 03 March)

Event Time Altitude Azimuth Distance (km) Brightness Sun altitude
Rises 18:32:04 0° 319° (NW) 3,953 7.2 -23.6°
Reaches altitude 10° 18:34:41 10° 318° (NW) 3,030 6.6 -24.0°
Maximum altitude 18:41:58 76° 234° (SW) 1,227 4.0 -25.2°
Enters shadow 18:47:26 21° 153° (SSE) 2,444 5.3 -26.2°
